Regional Weather Roundup
Issued by NWS

Home | Current Version | Previous Version | Text Only | Print | Product List | Glossary On
Versions: 1 2 3 4 5 6 7 8 9 10 11 12 13 14 15 16 17 18 19 20 21 22 23 24 25 26 27 28 29 30 31 32 33 34 35 36 37 38 39 40 41 42 43 44 45 46 47 48 49 50
000
ASHW40 PHFO 251143
RWRHI

WEATHER ROUNDUP FOR HAWAII
NATIONAL WEATHER SERVICE HONOLULU HI
100 AM HST SAT FEB 25 2017

THIS IS AN AUTOMATED REPORT THAT HAS NOT BEEN QUALITY CONTROLLED.

NOTE..."FAIR" INDICATES FEW OR NO CLOUDS BELOW 12,000 FEET WITH NO
SIGNIFICANT WEATHER AND/OR OBSTRUCTIONS TO VISIBILITY.

* - THESE SITES REPORT LIMITED FIELDS

HIZ001>004-251200-
KAUAI-NIIHAU-

CITY           SKY/WX    TMP DP  RH WIND       PRES   REMARKS
LIHUE APT      PTCLDY    60  53  77 W7        30.08F
PORT ALLEN*      N/A     63 N/A N/A N8          N/A
POIPU*           N/A     63 N/A N/A NE3         N/A
PRINCEVILLE*     N/A     57 N/A N/A S3          N/A
KOKOLE POINT*  NOT AVBL
MOLOAA DAIRY*    N/A     59  54  82 W1          N/A
WAIMEA HTS*      N/A     64  43  45 N3G9        N/A
PUU OPAE*      NOT AVBL
PUU LUA*       NOT AVBL
MAKAHA RIDGE*    N/A     57  54  88 S2          N/A
$$

HIZ005>011-251200-
OAHU-

CITY           SKY/WX    TMP DP  RH WIND       PRES   REMARKS
HONOLULU       PTCLDY    66  56  70 NW8       30.06S
KALAELOA       PTCLDY    66  55  67 NE5       30.07S
KANEOHE MCB    NOT AVBL
WHEELER FIELD  FAIR      59  55  84 CALM      30.05
BELLOWS*         N/A    N/A N/A N/A NE12        N/A
KAHUKU*          N/A    N/A N/A N/A NE3         N/A
WHEELER*         N/A    N/A N/A N/A N5          N/A
WAIANAE HARBOR   N/A    N/A N/A N/A NE3         N/A
DILLINGHAM*    NOT AVBL
KAHUKU TRN*      N/A     72  63  73 W3G9        N/A
KAWAILOA*        N/A     61  54  77 NE6         N/A
KII*             N/A     70  57  64 NE12        N/A
MAKUA RANGE*     N/A     66  55  68 NW6G12      N/A
OAHU FOREST NW   N/A     61  52  72 CALM        N/A
SCHOFIELD BRK*   N/A     59  57  94 MISG        N/A
SCHOFIELD S*   NOT AVBL
WAIANAE VLY*     N/A     64  54  68 N5G14       N/A
KUAOKALA*        N/A     64  -4   6 E12G18      N/A
HONOULIUULI*   NOT AVBL
MOKUOLOE IS*   NOT AVBL
PALEHUA*         N/A     57  52  82 NE8G17      N/A
WAIAWA PHB*    NOT AVBL
$$

HIZ012>013-251200-
MOLOKAI-

CITY           SKY/WX    TMP DP  RH WIND       PRES   REMARKS
MOLOKAI AIRPT  PTCLDY    66  59  77 NE7       30.06S
KALAUPAPA      NOT AVBL
MAKAPULAPAI*   NOT AVBL
MOLOKAI 1*     NOT AVBL
PUU ALII*        N/A     50  50 100 NE1         N/A
$$

HIZ016-251200-
KAHOOLAWE-

CITY           SKY/WX    TMP DP  RH WIND       PRES   REMARKS
KAHOOLAWE*     NOT AVBL
HAKIOAWA*        N/A     63  60  89 MISG      30.45F
HONOKANAIA*      N/A     69  60  73 N8        29.99
KANELOA*         N/A     66  59  77 NE6G17      N/A
KEALIALALO*    NOT AVBL
LUA MAKIKA*    NOT AVBL
$$

HIZ014>015-251200-
LANAI-

CITY           SKY/WX    TMP DP  RH WIND       PRES   REMARKS
LANAI CITY       N/A     62  57  83 NE10      30.09R
LANAI 1*       NOT AVBL
$$

HIZ017>028-251200-
MAUI-

CITY           SKY/WX    TMP DP  RH WIND       PRES   REMARKS
KAHULUI        CLEAR     67  59  75 E6        30.05S
KAPALUA-W MAUI NOT AVBL
HANA AIRPORT   CLOUDY    64  63  94 CALM      30.07F
HANA*            N/A     64 N/A N/A S2          N/A
HALEAKALA SUMM   N/A     36 -20   8 NW10        N/A  WCI  28
MAALAEA BAY*     N/A     68 N/A N/A N10         N/A
HALEAKALA*     NOT AVBL
KAUPO GAP*       N/A     63  52  67 W8          N/A
KULA 1*          N/A     45   1  16 SE3         N/A
$$

HIZ023>026-251200-
BIG ISLAND OF HAWAII COAST AND LOWER SLOPES-

CITY           SKY/WX    TMP DP  RH WIND       PRES   REMARKS
KAILUA KONA    CLOUDY    74  58  57 CALM      30.01F
HILO           CLOUDY    65  53  65 SW7       30.04F
HONOKAA*         N/A     61 N/A N/A VRB1        N/A
KAWAIHAE MWT*    N/A     70 N/A N/A E3          N/A
KAWAIHAE*        N/A     70 N/A N/A NE5       30.01F
SOUTH POINT*     N/A     63 N/A N/A NW8         N/A
UPOLU AIRPORT* NOT AVBL
KAMUELA*       CLOUDY    48  45  87 E6        30.10F
HAKALAU*         N/A     36  34  93 W3          N/A
KALOKO-HONOKO*   N/A     70  59  68 NE5         N/A
PALI 2*          N/A     57  46  67 S9          N/A
KEALAKOMO*       N/A     70  54  56 N9          N/A
KAUPULEHU*       N/A     64  52  63 SE8         N/A
KAPAPALA*        N/A     54  52  93 NW7         N/A
LOWER KAHUKU*    N/A     54  50  87 VRB1        N/A
PUHE CS*         N/A     70  46  43 E6G12       N/A
PUHO CS*         N/A     69  58  69 NE3         N/A
PTA KEAMUKU*     N/A     54  46  76 CALM        N/A
WAIKOLOA*        N/A     61  50  67 E9G15       N/A
$$

HIZ027>028-251200-
BIG ISLAND OF HAWAII INTERIOR AND SUMMMITS-

CITY           SKY/WX    TMP DP  RH WIND       PRES   REMARKS
BRADSHAW FIELD CLOUDY    43  39  87 E5        30.26F
MK VISITOR CEN NOT AVBL
MAUNA KEA*       N/A     25 -29   8 SW16        N/A  WCI  12
MAUNA LOA*       N/A     32 -11  15 MISG        N/A
MAUNA LOA 1*   NOT AVBL
PTA KIPUKA*      N/A     64  61  88 CALM        N/A
PTA RANGE 17*    N/A     46  43  87 CALM        N/A
PTA WEST*        N/A     46  41  81 SE7         N/A
NENE CABIN*      N/A     39  39 100 N3          N/A
AHUMOA*          N/A    N/A N/A N/A E3G14       N/A
PTA PORTABLE*  NOT AVBL
PUU MALI*        N/A    N/A N/A N/A S7          N/A
$$

HIC003-251200-
NORTHWEST ISLANDS-

CITY           SKY/WX    TMP DP  RH WIND       PRES   REMARKS
MIDWAY ISLAND  CLOUDY    63  57  82 NE15      30.25F
MIDWAY NOS*      N/A     64 N/A N/A MISG      30.22F
FRENCH FRIGATE NOT AVBL
$$

PHZ110>124-180-251200-
BUOY REPORTS

STATION/POSITION TIME  TEMP    WIND        PRES    WAVE   SWELL
                       AIR SEA DIR/SP/G            HT/PER HT/DIR
                 (UTC) (F)     (DEG/KT/KT) (MB)    (FT/S) (FT/D)
BUOY 51001       1110   68 72   10/  2/  4 1018.3
BUOY 51101       1050   68 72   20/  4/  4 1019.2F   7/15   7/310
BUOY 51100       NOT AVBL
BUOY 51002       1110   75 77   60/ 14/ 17 1015.4
BUOY 51003       1050   72 77   60/ 12/ 17 1016.7F   7/16   7/310
BUOY 51004       1050      76   60/ 14/ 16 1015.6F   7/ 9   5/ 50
BARBERS PT BUOY  NOT AVBL
WAIMEA BAY BUOY  1102      74                N/A     7/17   5/320
KAILUA BAY BUOY  1104      75                N/A     5/ 9   2
LANAI BUOY       1115      76                N/A     2/17   2/300
BARBERS PT 2     NOT AVBL
PAUWELA MAUI     1109      75                N/A     7/11   5/360
HILO             1112      76                N/A     6/12   3/350
KANEOHE BAY BUOY 1106      75                N/A     5/11   3
HANALEI KAUAI    1122      75                N/A     8/15   7/320
KAHULUI HARBOR   1112   69 74   80/  2/  4 1017.4
HONOLULU HARBOR  1112   69 75  340/  2/  3 1018.5
KILO NALU        NOT AVBL
HILO HARBOR      1112   67 75  160/  1/  5 1016.8
MOKUOLOE         1036   71 73   60/  5/  7 1018.1S
NAWILIWILI       1118   59     260/  5/  5 1018.2
WHOTS BUOY       NOT AVBL
BUOY 51028       NOT AVBL
$$

......................KEY........................................
  SKY/WX - SKY CONDITIONS/PRESENT WEATHER
  TMP    - TEMPERATURE IN FAHRENHEIT
  DWPT   - DEWPOINT IN FAHRENHEIT
  RH     - RELATIVE HUMIDITY IN PERCENT
  WIND   - DIRECTION AND SPEED /MPH FOR ISLANDS...KTS FOR BUOYS/
  PRES   - MEAN SEA LEVEL PRESSURE IN INCHES OF HG
  VSB    - VISIBILITY IN MILES
  HX     - HEAT INDEX
  WCI    - WIND CHILL INDEX
  VRB    - VARIABLE WIND DIRECTION
  N/A    - NOT AVAILABLE



USA.gov is the U.S. government's official web portal to all federal, state and local government web resources and services.